Regional Weather Roundup
Issued by NWS Cleveland, OH

Home | Current Version | Previous Version | Text Only | Print | Product List | Glossary Off
Versions: 1 2 3 4 5 6 7 8 9 10 11 12 13 14 15 16 17 18 19 20 21 22 23 24 25 26 27 28 29 30 31 32 33 34 35 36 37 38 39 40 41 42 43 44 45 46 47 48 49 50

000
ASUS41 KCLE 190500
RWRCLE
OHIO REGIONAL WEATHER ROUNDUP
NATIONAL WEATHER SERVICE WILMINGTON, OH
100 AM EDT FRI SEP 19 2014

NOTE: "FAIR" INDICATES FEW OR NO CLOUDS BELOW 12,000 FEET WITH NO
SIGNIFICANT WEATHER AND/OR OBSTRUCTIONS TO VISIBILITY.

OHZ001>008-015>018-024>027-034-035-043-044-190600-
   NORTHWEST OHIO

CITY           SKY/WX    TMP DP  RH WIND       PRES   REMARKS
DEFIANCE       CLEAR     54  51  90 NE3       30.20S FOG
FINDLAY        CLEAR     55  51  86 NE7       30.19R
TOLEDO EXPRESS MOCLDY    54  51  90 NE5       30.21S
TOLEDO METCALF CLOUDY    57  50  77 NE9       30.22S
LIMA           CLEAR     52  49  89 E7        30.19S
$$

OHZ009>014-019>023-028>033-038-089-190600-
   NORTHEAST OHIO

CITY           SKY/WX    TMP DP  RH WIND       PRES   REMARKS
CLE-HOPKINS    PTCLDY    56  50  80 N6        30.22S
CLE-LAKEFRONT  MOCLDY    58  49  72 N8        30.20S
CUY CO. ARPT   NOT AVBL
LORAIN-ELYRIA  PTCLDY    56  50  80 NE6       30.21S
ASHTABULA      MOCLDY    49  48  97 CALM      30.21R
AKRON-CANTON   CLEAR     50  46  86 NE6       30.20R
WOOSTER        NOT AVBL
MANSFIELD      CLEAR     51  50  96 NE3       30.20R
YOUNGSTOWN     PTCLDY    48  47  96 CALM      30.20R
$$

OHZ042-051>053-060>062-070>072-077>081-190600-
  SOUTHWEST OHIO

CITY           SKY/WX    TMP DP  RH WIND       PRES   REMARKS
CINC-COVINGTON CLEAR     58  46  64 E6        30.13S
CINC-LUNKEN    CLEAR     50  49  96 NE3       30.15R
HAMILTON       CLEAR     49  48  97 CALM      30.15S
DAYTON         NOT AVBL
WRIGHT-PAT AFB CLEAR     53  49  84 CALM      30.17R
DAYTON GENERAL CLEAR     53  48  83 NE6       30.15S
WILMINGTON     CLEAR     49  44  83 NE7       30.16R
$$

OHZ036-037-039>041-045>050-054>059-063>069-073>076-082>088-190600-
  CENTRAL AND SOUTHEAST OHIO

CITY           SKY/WX    TMP DP  RH WIND       PRES   REMARKS
COLUMBUS       CLEAR     58  49  72 E8        30.17R
OSU AIRPORT    CLEAR     55  49  80 NE7       30.17S
BOLTON FIELD   NOT AVBL
RICKENBACK AFB NOT AVBL
NEWARK         CLEAR     53  48  83 CALM      30.18R
MARION         CLEAR     49  46  90 CALM      30.19R
LANCASTER      CLEAR     48  46  93 CALM      30.17S
ZANESVILLE     CLEAR     53  49  86 N3        30.18R
NEW PHILLY     MOCLDY    52  51  97 CALM      30.20R
$$


USA.gov is the U.S. government's official web portal to all federal, state and local government web resources and services.